Location: Fredericksburg
(30.2750°N, 98.8720°W)
Time: 05:32:28
(UTC-05:00)

PCSat - Pass Details

Date: 01 June 2018
Orbit: 784 x 795 km, 67.1° (Epoch: 17 August)

Event Time Altitude Azimuth Distance (km) Brightness Sun altitude
Exits shadow 05:05:44 16° 277° (W) 1,960 11.2 -16.9°
Maximum altitude 05:07:42 19° 304° (NW) 1,796 11.2 -16.6°
Drops below altitude 10° 05:11:30 10° 349° (N) 2,353 12.4 -15.9°
Sets 05:14:37 0° 7° (N) 3,287 13.5 -15.4°
